2014-12-11 00:01:22 r, 19.07m,0000000002Hz,0000230307c,0000000.500s, 009.3C,00002191
2014-12-11 00:11:23 r, 19.02m,0000000002Hz,0000220985c,0000000.480s, 009.3C,00002191
2014-12-11 00:21:20 r, 18.97m,0000000003Hz,0000210352c,0000000.456s, 009.3C,00002191
2014-12-11 00:31:22 r, 18.91m,0000000002Hz,0000198657c,0000000.431s, 009.3C,00002191
2014-12-11 00:41:20 r, 18.81m,0000000003Hz,0000180500c,0000000.392s, 009.3C,00002191
2014-12-11 00:51:21 r, 18.35m,0000000004Hz,0000119277c,0000000.259s, 009.3C,00002191
2014-12-11 01:01:20 r, 18.32m,0000000004Hz,0000116142c,0000000.252s, 009.3C,00002191
2014-12-11 01:11:22 r, 17.83m,0000000006Hz,0000074032c,0000000.161s, 009.6C,00002191
2014-12-11 01:21:20 r, 17.56m,0000000007Hz,0000057536c,0000000.125s, 009.6C,00002191
2014-12-11 01:31:21 r, 17.60m,0000000007Hz,0000059414c,0000000.129s, 009.9C,00002191
2014-12-11 01:41:20 r, 17.49m,0000000008Hz,0000054646c,0000000.119s, 010.3C,00002191
2014-12-11 01:51:22 r, 17.37m,0000000009Hz,0000048612c,0000000.105s, 010.3C,00002191
2014-12-11 02:01:22 r, 17.40m,0000000009Hz,0000050083c,0000000.109s, 010.6C,00002191
2014-12-11 02:11:20 r, 17.34m,0000000010Hz,0000047108c,0000000.102s, 010.6C,00002191
2014-12-11 02:21:20 r, 17.36m,0000000010Hz,0000048054c,0000000.104s, 010.9C,00002191
2014-12-11 02:31:23 r, 17.28m,0000000011Hz,0000044772c,0000000.097s, 010.9C,00002191
2014-12-11 02:41:20 r, 17.29m,0000000011Hz,0000045308c,0000000.098s, 010.9C,00002191
2014-12-11 02:51:21 r, 17.26m,0000000010Hz,0000043994c,0000000.095s, 010.9C,00002191
2014-12-11 03:01:20 r, 17.23m,0000000011Hz,0000042852c,0000000.093s, 011.2C,00002191
2014-12-11 03:11:21 r, 17.24m,0000000011Hz,0000043304c,0000000.094s, 011.2C,00002191
2014-12-11 03:21:20 r, 17.24m,0000000011Hz,0000043487c,0000000.094s, 011.2C,00002191
2014-12-11 03:31:24 r, 17.22m,0000000011Hz,0000042618c,0000000.092s, 011.2C,00002191
2014-12-11 03:41:24 r, 17.24m,0000000011Hz,0000043271c,0000000.094s, 011.2C,00002191
2014-12-11 03:51:22 r, 17.19m,0000000012Hz,0000041062c,0000000.089s, 011.2C,00002191
2014-12-11 04:01:20 r, 17.16m,0000000011Hz,0000040327c,0000000.088s, 011.2C,00002191
2014-12-11 04:11:22 r, 17.19m,0000000011Hz,0000041442c,0000000.090s, 011.2C,00002191
2014-12-11 04:21:20 r, 17.22m,0000000011Hz,0000042410c,0000000.092s, 011.2C,00002191
2014-12-11 04:31:21 r, 17.22m,0000000011Hz,0000042344c,0000000.092s, 011.2C,00002191
2014-12-11 04:41:20 r, 17.26m,0000000011Hz,0000043895c,0000000.095s, 011.2C,00002191
2014-12-11 04:51:21 r, 17.28m,0000000010Hz,0000045031c,0000000.098s, 011.2C,00002191
2014-12-11 05:01:20 r, 17.22m,0000000011Hz,0000042384c,0000000.092s, 011.2C,00002191
2014-12-11 05:11:21 r, 17.30m,0000000010Hz,0000045599c,0000000.099s, 010.9C,00002191
2014-12-11 05:21:20 r, 17.29m,0000000010Hz,0000045273c,0000000.098s, 010.9C,00002191
2014-12-11 05:31:20 r, 17.26m,0000000011Hz,0000044020c,0000000.096s, 010.9C,00002191
2014-12-11 05:41:20 r, 17.31m,0000000010Hz,0000045883c,0000000.100s, 010.9C,00002191
2014-12-11 05:51:22 r, 17.39m,0000000009Hz,0000049692c,0000000.108s, 010.9C,00002191
2014-12-11 06:01:20 r, 17.42m,0000000010Hz,0000050781c,0000000.110s, 010.9C,00002191
2014-12-11 06:11:23 r, 17.39m,0000000009Hz,0000049430c,0000000.107s, 010.9C,00002191
2014-12-11 06:21:22 r, 17.42m,0000000009Hz,0000050940c,0000000.111s, 010.9C,00002191
2014-12-11 06:31:21 r, 17.39m,0000000009Hz,0000049426c,0000000.107s, 010.9C,00002191
2014-12-11 06:41:23 r, 17.45m,0000000009Hz,0000052371c,0000000.114s, 010.9C,00002191
2014-12-11 06:51:21 r, 17.46m,0000000009Hz,0000052820c,0000000.115s, 010.9C,00002191
2014-12-11 07:01:20 r, 17.37m,0000000009Hz,0000048463c,0000000.105s, 010.9C,00002191
2014-12-11 07:11:21 r, 16.81m,0000000015Hz,0000029150c,0000000.063s, 010.9C,00002191
2014-12-11 07:21:24 r, 15.69m,0000000044Hz,0000010337c,0000000.022s, 010.9C,00002191
2014-12-11 07:31:20 r, 14.07m,0000000199Hz,0000000000c,0000000.000s, 010.9C,00002191
2014-12-11 07:41:21 r, 12.42m,0000000914Hz,0000000000c,0000000.000s, 011.2C,00002191
2014-12-11 07:51:20 r, 10.60m,0000004874Hz,0000000000c,0000000.000s, 010.9C,00002191
2014-12-11 08:01:22 r, 08.93m,0000022757Hz,0000000000c,0000000.000s, 011.2C,00002191
2014-12-11 08:11:21 r, 07.79m,0000064529Hz,0000000000c,0000000.000s, 011.2C,00002191
2014-12-11 08:21:23 r, 07.10m,0000122009Hz,0000000000c,0000000.000s, 011.2C,00002191
2014-12-11 08:31:20 r, 06.48m,0000217031Hz,0000000000c,0000000.000s, 011.2C,00002191
2014-12-11 08:41:22 r, 06.07m,0000315908Hz,0000000000c,0000000.000s, 011.6C,00002191
2014-12-11 08:51:21 r, 00.00m,0000463938Hz,0000000000c,0000000.000s, 011.6C,00002191
2014-12-11 09:01:20 r, 00.00m,0000536354Hz,0000000000c,0000000.000s, 011.6C,00002191
2014-12-11 09:11:22 r, 00.00m,0000596341Hz,0000000000c,0000000.000s, 011.9C,00002191
2014-12-11 09:21:20 r, 00.00m,0000596358Hz,0000000000c,0000000.000s, 012.2C,00002191
2014-12-11 09:31:23 r, 00.00m,0000596362Hz,0000000000c,0000000.000s, 012.2C,00002191
2014-12-11 09:41:20 r, 00.00m,0000596264Hz,0000000000c,0000000.000s, 012.5C,00002191
2014-12-11 09:51:20 r, 00.00m,0000596354Hz,0000000000c,0000000.000s, 012.5C,00002191
2014-12-11 10:01:20 r, 00.00m,0000596267Hz,0000000000c,0000000.000s, 012.5C,00002191
2014-12-11 10:11:21 r, 00.00m,0000596334Hz,0000000000c,0000000.000s, 012.8C,00002191
2014-12-11 10:21:20 r, 00.00m,0000596296Hz,0000000000c,0000000.000s, 012.8C,00002191
2014-12-11 10:31:21 r, 00.00m,0000596211Hz,0000000000c,0000000.000s, 013.2C,00002191
2014-12-11 10:41:20 r, 00.00m,0000596215Hz,0000000000c,0000000.000s, 013.5C,00002191
2014-12-11 10:51:23 r, 00.00m,0000596181Hz,0000000000c,0000000.000s, 013.5C,00002191
2014-12-11 11:01:20 r, 00.00m,0000596170Hz,0000000000c,0000000.000s, 013.5C,00002191
2014-12-11 11:11:23 r, 00.00m,0000596171Hz,0000000000c,0000000.000s, 013.8C,00002191
2014-12-11 11:21:20 r, 00.00m,0000596192Hz,0000000000c,0000000.000s, 013.8C,00002191
2014-12-11 11:31:21 r, 00.00m,0000596218Hz,0000000000c,0000000.000s, 014.1C,00002191
2014-12-11 11:41:20 r, 00.00m,0000596048Hz,0000000000c,0000000.000s, 014.5C,00002191
2014-12-11 11:51:22 r, 00.00m,0000596180Hz,0000000000c,0000000.000s, 014.5C,00002191
2014-12-11 12:01:20 r, 00.00m,0000596111Hz,0000000000c,0000000.000s, 014.5C,00002191
2014-12-11 12:11:21 r, 00.00m,0000596140Hz,0000000000c,0000000.000s, 014.5C,00002191
2014-12-11 12:21:21 r, 00.00m,0000596160Hz,0000000000c,0000000.000s, 014.8C,00002191
2014-12-11 12:31:22 r, 00.00m,0000596204Hz,0000000000c,0000000.000s, 014.8C,00002191
2014-12-11 12:41:20 r, 00.00m,0000596151Hz,0000000000c,0000000.000s, 014.5C,00002191
2014-12-11 12:51:22 r, 00.00m,0000596088Hz,0000000000c,0000000.000s, 014.8C,00002191
2014-12-11 13:01:20 r, 00.00m,0000596033Hz,0000000000c,0000000.000s, 014.8C,00002191
2014-12-11 13:11:22 r, 00.00m,0000596038Hz,0000000000c,0000000.000s, 014.8C,00002191
2014-12-11 13:21:20 r, 00.00m,0000596138Hz,0000000000c,0000000.000s, 014.8C,00002191
2014-12-11 13:31:21 r, 00.00m,0000596037Hz,0000000000c,0000000.000s, 014.8C,00002191
2014-12-11 13:41:20 r, 00.00m,0000596109Hz,0000000000c,0000000.000s, 014.5C,00002191
2014-12-11 13:51:21 r, 00.00m,0000596115Hz,0000000000c,0000000.000s, 014.5C,00002191
2014-12-11 14:01:20 r, 00.00m,0000596185Hz,0000000000c,0000000.000s, 014.5C,00002191
2014-12-11 14:11:21 r, 00.00m,0000596114Hz,0000000000c,0000000.000s, 014.5C,00002191
2014-12-11 14:21:20 r, 00.00m,0000596123Hz,0000000000c,0000000.000s, 014.5C,00002191
2014-12-11 14:31:23 r, 00.00m,0000596170Hz,0000000000c,0000000.000s, 014.1C,00002191
2014-12-11 14:41:23 r, 00.00m,0000596161Hz,0000000000c,0000000.000s, 014.5C,00002191
2014-12-11 14:51:20 r, 00.00m,0000596196Hz,0000000000c,0000000.000s, 014.1C,00002191
2014-12-11 15:01:21 r, 00.00m,0000596182Hz,0000000000c,0000000.000s, 014.1C,00002191
2014-12-11 15:11:21 r, 00.00m,0000596112Hz,0000000000c,0000000.000s, 014.1C,00002191
2014-12-11 15:21:20 r, 00.00m,0000596108Hz,0000000000c,0000000.000s, 013.8C,00002191
2014-12-11 15:31:21 r, 00.00m,0000596141Hz,0000000000c,0000000.000s, 013.8C,00002191
2014-12-11 15:41:20 r, 00.00m,0000524175Hz,0000000000c,0000000.000s, 013.5C,00002191
2014-12-11 15:51:21 r, 05.84m,0000391111Hz,0000000000c,0000000.000s, 013.5C,00002191
2014-12-11 16:01:21 r, 06.23m,0000272632Hz,0000000000c,0000000.000s, 013.2C,00002191
2014-12-11 16:11:22 r, 06.77m,0000166725Hz,0000000000c,0000000.000s, 013.2C,00002191
2014-12-11 16:21:20 r, 07.37m,0000095448Hz,0000000000c,0000000.000s, 012.8C,00002191
2014-12-11 16:31:23 r, 08.16m,0000046320Hz,0000000000c,0000000.000s, 012.8C,00002191
2014-12-11 16:41:21 r, 09.23m,0000017156Hz,0000000000c,0000000.000s, 012.5C,00002191
2014-12-11 16:51:21 r, 10.88m,0000003775Hz,0000000000c,0000000.000s, 012.5C,00002191
2014-12-11 17:01:20 r, 12.65m,0000000734Hz,0000000000c,0000000.000s, 012.8C,00002191
2014-12-11 17:11:21 r, 14.62m,0000000119Hz,0000003885c,0000000.008s, 012.5C,00002191
2014-12-11 17:21:21 r, 16.26m,0000000026Hz,0000017623c,0000000.038s, 012.8C,00002191
2014-12-11 17:31:21 r, 17.38m,0000000010Hz,0000049071c,0000000.106s, 012.8C,00002191
2014-12-11 17:41:20 r, 17.81m,0000000006Hz,0000072902c,0000000.158s, 012.8C,00002191
2014-12-11 17:51:22 r, 18.00m,0000000006Hz,0000087367c,0000000.190s, 012.5C,00002191
2014-12-11 18:01:20 r, 17.99m,0000000006Hz,0000086438c,0000000.188s, 012.5C,00002191
2014-12-11 18:11:22 r, 18.01m,0000000006Hz,0000087927c,0000000.191s, 012.5C,00002191
2014-12-11 18:21:20 r, 18.14m,0000000005Hz,0000098875c,0000000.215s, 012.8C,00002191
2014-12-11 18:31:23 r, 18.15m,0000000005Hz,0000099858c,0000000.217s, 012.8C,00002191
2014-12-11 18:41:22 r, 18.17m,0000000004Hz,0000101824c,0000000.221s, 012.5C,00002191
2014-12-11 18:51:20 r, 18.25m,0000000004Hz,0000110038c,0000000.239s, 012.8C,00002191
2014-12-11 19:01:20 r, 18.22m,0000000004Hz,0000106481c,0000000.231s, 012.8C,00002191
2014-12-11 19:11:21 r, 18.27m,0000000004Hz,0000111208c,0000000.241s, 012.8C,00002191
2014-12-11 19:21:20 r, 18.23m,0000000005Hz,0000107798c,0000000.234s, 012.8C,00002191
2014-12-11 19:31:21 r, 18.22m,0000000005Hz,0000106380c,0000000.231s, 012.8C,00002191
2014-12-11 19:41:20 r, 18.26m,0000000004Hz,0000110436c,0000000.240s, 012.8C,00002191
2014-12-11 19:51:20 r, 18.34m,0000000004Hz,0000118988c,0000000.258s, 012.8C,00002191
2014-12-11 20:01:20 r, 18.40m,0000000004Hz,0000125006c,0000000.271s, 012.8C,00002191
2014-12-11 20:11:20 r, 18.37m,0000000004Hz,0000122614c,0000000.266s, 012.8C,00002191
2014-12-11 20:21:20 r, 18.43m,0000000003Hz,0000129600c,0000000.281s, 012.8C,00002191
2014-12-11 20:31:20 r, 18.44m,0000000003Hz,0000130071c,0000000.282s, 012.8C,00002191
2014-12-11 20:41:23 r, 18.25m,0000000004Hz,0000109722c,0000000.238s, 012.8C,00002191
2014-12-11 20:51:20 r, 18.26m,0000000004Hz,0000110526c,0000000.240s, 012.8C,00002191
2014-12-11 21:01:22 r, 18.29m,0000000005Hz,0000113155c,0000000.246s, 012.8C,00002191
2014-12-11 21:11:20 r, 18.40m,0000000003Hz,0000125666c,0000000.273s, 012.8C,00002191
2014-12-11 21:21:22 r, 18.44m,0000000003Hz,0000130816c,0000000.284s, 012.8C,00002191
2014-12-11 21:31:20 r, 18.44m,0000000003Hz,0000130487c,0000000.283s, 012.8C,00002191
2014-12-11 21:41:21 r, 18.45m,0000000003Hz,0000131474c,0000000.285s, 012.8C,00002191
2014-12-11 21:51:22 r, 18.40m,0000000003Hz,0000125380c,0000000.272s, 012.8C,00002191
2014-12-11 22:01:20 r, 18.44m,0000000004Hz,0000130827c,0000000.284s, 012.8C,00002191
2014-12-11 22:11:21 r, 18.43m,0000000003Hz,0000128740c,0000000.279s, 012.8C,00002191
2014-12-11 22:21:22 r, 18.45m,0000000003Hz,0000131861c,0000000.286s, 012.8C,00002191
2014-12-11 22:31:22 r, 18.42m,0000000004Hz,0000127807c,0000000.277s, 012.8C,00002191
2014-12-11 22:41:20 r, 18.49m,0000000004Hz,0000136415c,0000000.296s, 012.8C,00002191
2014-12-11 22:51:21 r, 18.41m,0000000004Hz,0000127463c,0000000.277s, 012.8C,00002191
2014-12-11 23:01:22 r, 18.43m,0000000003Hz,0000128965c,0000000.280s, 012.8C,00002191
2014-12-11 23:11:20 r, 18.39m,0000000004Hz,0000124708c,0000000.271s, 012.8C,00002191
2014-12-11 23:21:21 r, 18.34m,0000000004Hz,0000119086c,0000000.258s, 012.8C,00002191
2014-12-11 23:31:20 r, 18.37m,0000000003Hz,0000122095c,0000000.265s, 012.8C,00002191
2014-12-11 23:41:21 r, 18.29m,0000000004Hz,0000113492c,0000000.246s, 012.8C,00002191
2014-12-11 23:51:21 r, 18.31m,0000000004Hz,0000115062c,0000000.250s, 012.8C,00002191
